User: anonymous
Location: The D'Auria's Ocala Star Observatory
(29.0276°N, 82.1742°W)
Time: 00:26:18
(UTC-04:00)
Language:

Okean 3 Rocket - Orbit

View from above orbital plane
View from above orbital plane
View from above satellite
View from above satellite

Ground track
Ground track

The orbit data is extracted from the following two-line orbital elements,

1 21398U 91039B   14266.58436083  .00000351  00000-0  44074-4 0  8587
2 21398 082.5214 074.6176 0021310 207.9933 195.2898 14.79211773256409
Epoch (UTC): 23 September 2014 14:01:28
Eccentricity: 0.0021310
inclination: 82.5214°
perigee height: 617 km
apogee height: 647 km
right ascension of ascending node: 74.6176°
argument of perigee: 207.9933°
revolutions per day: 14.79211773
mean anomaly at epoch: 195.2898°
orbit number at epoch: 25640

The dashed part of the orbit path shows where the satellite is in the earth's shadow,  

DLR